DELTA 1 DEB, 42556

Orbit data source: Space-Track

DELTA 1 DEB, 42556 is space debris in SSO originally from a launch on Sun, 23 Jul 1972 UTC launched from the Air Force Western Test Range (AFWTR). Debris objects in space refer to the collection of defunct objects orbiting the Earth. Examples of debris include non-operational satellites, rocket bodies, and fragments generated from explosions, collisions, or faulty payload assembly.

Loading next visibility...
Identifier
42556, 1972-058JP
Orbit
SSO
Country
Flag of USUS
Related business
Manufacturer
Unknown
Mission
Spacecraft
Bus & Motor
Unknown
Mass
Unknown
Launch date (UTC)
1972-07-23 (54 years ago)
Launch vehicle
Unknown
Launch site
Air Force Western Test Range (AFWTR)
Object type
Payload
Rocket body
Debris
Shape & HBR
Unknown shape, 0.1 m
Radar Cross Section
Small (<0.1 m²)

Expand to show TLE details & history
Last TLE update: 1 week ago

TLE from 1 week ago
0 DELTA 1 DEB
1 42556U 72058JP  26143.90361239  .00001978  00000-0  63134-3 0  9998
2 42556  98.4482 209.1742 0271880 149.2074 212.5377 14.21761063643862
Epoch: 2026-05-23T21:41Z
TLE epoch observation values (Epoch: 2026-05-23T21:41:12.110Z)
Latitude
-0.00001°
Longitude
2.36032°
Altitude
988.826 km
Speed
7.272 km/s
True Right ascension
13h 56m 41s
True Declination
0° 00' 00"
Sunlit
Object was in full shadow at epoch
Visualization orbit readout
Latitude
Unknown
Longitude
Unknown
Altitude
Unknown
Speed
Unknown
Apparent Right ascension
Unknown
Apparent Declination
Unknown
Sunlit
N/A
Visualization observer readout
Local Sidereal Time
01:13:23
Azimuth
Unknown
Elevation
Unknown
Doppler factor
Unknown
Orbital elements
Apogee altitude
1,012.153 km
Perigee altitude
620.935 km
Semi-major axis
7,194.681 km
Eccentricity
0.02719
Inclination
98.4482°
RAAN
209.1742°
Arg. of periapsis
149.2074°
True anomaly
210.90895°
Mean anomaly
212.5377°
Eccentric anomaly
211.71871°
Mean motion
3.55653 °/min
Orbital period
101.22 mins
BSTAR
0.00063134
Loading maneuver chart data...
Computing Atmospheric mass density...
Loading historical data...
Loading historical data...
Loading historical data...
Loading historical data...
Loading historical data...
Loading historical data...
Loading historical data...

Documentation

Showing up to 5 results
|